DW3741 Weather Reports


time (UTC)temp
C
wind
direction
speed
KPH
gust
KPH
rain 1hr
cm
rain 24hr
cm
rain mn
cm
humidity
%
barometer
mb
20260502214343 18 172 3.2 20.9 0.10 0.00 0.10 77 1014.4
20260502213842 18 135 6.4 20.9 0.05 0.00 0.03 72 1014.3
20260502213337 20 162 8.0 20.9 0.03 0.00 0.03 69 1014.4
20260502212835 20 132 4.8 16.1 0.00 0.00 0.00 65 1014.3
20260502204306 22 15 0.0 3.2 0.00 0.00 0.00 62 1013.6
20260502201336 22 14 0.0 1.6 0.00 0.00 0.00 61 1013.6
20260502193512 23 8 3.2 4.8 0.00 0.00 0.00 58 1013.6
20260502192526 23 24 1.6 3.2 0.00 0.00 0.00 56 1013.6
20260502191501 23 24 1.6 3.2 0.00 0.00 0.00 57 1013.8
20260502185103 23 24 0.0 4.8 0.00 0.00 0.00 56 1014.1
20260502184603 23 24 1.6 3.2 0.00 0.00 0.00 56 1014.2
20260502181525 23 24 0.0 3.2 0.00 0.00 0.00 58 1014.6
20260502180452 23 24 1.6 3.2 0.00 0.00 0.00 58 1014.8
20260502163234 23 279 3.2 8.0 0.00 0.00 0.00 58 1015.8
20260502161713 22 258 3.2 16.1 0.00 0.00 0.00 57 1015.9
20260502160634 23 308 6.4 16.1 0.00 0.00 0.00 57 1016.1
20260502160216 22 341 4.8 11.3 0.00 0.00 0.00 58 1016.1
20260502123032 21 264 8.0 17.7 0.00 0.00 0.00 59 1017.8
20260502122614 21 210 4.8 11.3 0.00 0.00 0.00 59 1017.9
20260502122115 21 260 6.4 11.3 0.00 0.00 0.00 59 1017.9
20260502121533 21 205 1.6 9.7 0.00 0.00 0.00 58 1017.9
20260502121031 20 108 3.2 9.7 0.00 0.00 0.00 59 1018.1
20260502114928 20 144 3.2 8.0 0.00 0.00 0.00 58 1018.2
20260502113441 20 178 3.2 6.4 0.00 0.00 0.00 58 1018.4
20260502112946 19 230 3.2 6.4 0.00 0.00 0.00 58 1018.2
20260502111004 18 226 3.2 6.4 0.00 0.00 0.00 59 1018.4
20260502110048 18 354 1.6 6.4 0.00 0.00 0.00 61 1018.4
20260502104103 17 282 3.2 6.4 0.00 0.00 0.00 62 1018.6
20260502103525 17 207 3.2 6.4 0.00 0.00 0.00 62 1018.6
20260502102107 16 265 1.6 6.4 0.00 0.00 0.00 63 1018.6
20260502101607 16 271 1.6 8.0 0.00 0.00 0.00 62 1018.5
20260502100535 15 244 3.2 8.0 0.00 0.00 0.00 62 1018.5
20260502071527 10 136 1.6 4.8 0.00 0.00 0.00 67 1018.4
20260502070500 10 136 1.6 4.8 0.00 0.00 0.00 67 1018.4
20260502065538 10 136 1.6 4.8 0.00 0.00 0.00 66 1018.3
20260502064542 10 136 1.6 4.8 0.00 0.00 0.00 66 1018.4
20260502063010 10 136 1.6 4.8 0.00 0.00 0.00 66 1018.4
20260502062045 10 138 0.0 3.2 0.00 0.00 0.00 66 1018.5
20260502060556 10 138 1.6 3.2 0.00 0.00 0.00 66 1018.7
20260502055117 11 138 0.0 3.2 0.00 0.00 0.00 65 1018.9
20260502053627 11 138 1.6 4.8 0.00 0.00 0.00 64 1018.8
20260502052641 11 138 1.6 4.8 0.00 0.00 0.00 63 1018.9
20260502051638 11 139 1.6 4.8 0.00 0.00 0.00 62 1018.8
20260502045736 11 139 1.6 4.8 0.00 0.00 0.00 62 1019.1
20260502044656 12 141 1.6 4.8 0.00 0.00 0.00 61 1019.2
20260502044237 12 142 1.6 4.8 0.00 0.00 0.00 60 1019.2
20260502042752 12 142 0.0 3.2 0.00 0.00 0.00 60 1019.4
20260502042247 12 142 0.0 3.2 0.00 0.00 0.00 58 1019.3
20260502041240 12 142 0.0 1.6 0.00 0.00 0.00 58 1019.4
20260502040656 13 142 0.0 1.6 0.00 0.00 0.00 58 1019.3
20260502035333 13 142 0.0 1.6 0.00 0.00 0.00 56 1019.4
20260502034831 13 142 0.0 3.2 0.00 0.00 0.00 56 1019.3
20260502033759 13 142 1.6 3.2 0.00 0.00 0.00 55 1019.4
20260502032759 13 142 1.6 4.8 0.00 0.00 0.00 54 1019.4
20260502031752 13 144 1.6 4.8 0.00 0.00 0.00 54 1019.5
20260502031334 14 144 1.6 4.8 0.00 0.00 0.00 53 1019.7
20260502025849 14 144 1.6 3.2 0.00 0.00 0.00 52 1019.8
20260502025309 15 144 1.6 3.2 0.00 0.00 0.00 52 1019.9
20260502024813 15 145 1.6 3.2 0.00 0.00 0.00 51 1019.9
20260502022436 15 145 0.0 3.2 0.00 0.00 0.00 50 1020.2
20260502021938 15 145 0.0 3.2 0.00 0.00 0.00 50 1020.2
20260502021438 15 145 0.0 3.2 0.00 0.00 0.00 50 1020.2
20260502020934 15 145 0.0 4.8 0.00 0.00 0.00 50 1020.3
20260502020437 15 145 1.6 4.8 0.00 0.00 0.00 49 1020.3
20260502014415 15 145 1.6 4.8 0.00 0.00 0.00 49 1020.3
20260502013258 15 145 1.6 4.8 0.00 0.00 0.00 48 1020.4
20260502012756 16 145 1.6 4.8 0.00 0.00 0.00 49 1020.5
20260502012253 15 145 0.0 4.8 0.00 0.00 0.00 49 1020.5
20260502011328 16 145 1.6 3.2 0.00 0.00 0.00 49 1020.5
20260502010829 16 144 0.0 3.2 0.00 0.00 0.00 49 1020.5
20260502010328 16 144 0.0 3.2 0.00 0.00 0.00 49 1020.6
20260502005748 16 144 0.0 3.2 0.00 0.00 0.00 49 1020.6
20260502005247 16 142 1.6 3.2 0.00 0.00 0.00 48 1020.5
20260502004218 16 142 1.6 6.4 0.00 0.00 0.00 48 1020.5
20260502000040 17 134 0.0 4.8 0.00 0.00 0.00 46 1020.6
20260501235048 17 132 1.6 6.4 0.00 0.00 0.00 45 1020.6
20260501234007 17 138 3.2 6.4 0.00 0.00 0.00 44 1020.6
20260501231422 18 139 3.2 4.8 0.00 0.00 0.00 42 1020.6
20260501230347 18 125 1.6 3.2 0.00 0.00 0.00 42 1020.7
20260501222850 19 127 3.2 8.0 0.00 0.00 0.00 39 1020.9
20260501222311 19 115 1.6 6.4 0.00 0.00 0.00 39 1020.8